Вернуться в каталог

STARLINK-35573

АктивенСвязьVLEO
NORAD 66116·PAYLOAD·🇺🇸 United States

Запущен Oct 22, 2025 с Vandenberg Space Force Base

Loading…

Ближайшие Пролёты (ближайшие 24 часа)

TLE

СвежийSource: CelesTrak SupGP

Эпоха: Sep 15, 2026, 04:00 UTC

1 66116C 25237C   26258.16715278 -.00050040  00000+0 -14786-2 0  2585
2 66116  53.1574 236.4883 0001523 103.5604 239.6806 15.34412547    12

Отслеживайте STARLINK-35573 в реальном времени с AllMySat

Download on the App Store